15min,AgWx,beryljct,423,17JAN2020:00:00:00,41.2,12.87,40.1,39.9,40.3,40.8,39.9,47,48,46,0.402,21.8,21.9,21.6,16.38,16.9,179,8.0,24.4,0.00039,0.00045,31.7,33.2,18,0,.,.,8.51,0.00,0.00
15min,AgWx,beryljct,423,17JAN2020:00:15:00,40.8,12.87,39.3,39.0,39.3,39.9,38.8,49,51,48,0.402,22.0,22.2,21.8,11.71,11.9,174,7.9,16.8,0.00030,0.00036,31.7,33.2,18,0,.,.,8.51,0.00,0.00
15min,AgWx,beryljct,423,17JAN2020:00:30:00,40.4,12.86,40.0,39.6,39.4,39.8,38.9,49,50,48,0.397,21.9,22.1,21.6,19.36,16.2,168,8.8,21.8,0.00036,0.00041,31.7,33.3,19,0,.,.,8.51,0.00,0.00
15min,AgWx,beryljct,423,17JAN2020:00:45:00,40.1,12.86,38.9,38.8,39.2,39.7,38.8,48,48,48,0.386,21.2,21.6,20.9,15.94,16.3,165,8.6,21.3,0.00037,0.00042,31.7,33.3,19,0,.,.,8.51,0.00,0.00
15min,AgWx,beryljct,423,17JAN2020:01:00:00,39.3,12.85,37.9,37.8,38.2,38.8,37.7,49,50,48,0.383,20.8,21.0,20.6,11.84,13.3,175,7.1,19.4,0.00031,0.00037,31.7,33.3,19,0,.,.,8.51,0.00,0.00
15min,AgWx,beryljct,423,17JAN2020:01:15:00,38.9,12.85,39.0,38.6,38.0,38.6,37.7,50,50,50,0.398,21.0,21.6,20.7,15.37,13.9,187,11,18.9,0.00031,0.00036,31.7,33.3,19,0,.,.,8.51,0.00,0.00
15min,AgWx,beryljct,423,17JAN2020:01:30:00,39.2,12.82,40.5,40.1,39.3,40.1,38.6,49,51,48,0.414,21.9,22.6,21.6,24.64,16.4,194,8.7,26.8,0.00036,0.00041,31.7,33.2,18,0,.,.,8.51,0.00,0.00
15min,AgWx,beryljct,423,17JAN2020:01:45:00,39.7,12.84,37.9,37.8,38.9,40.2,37.8,57,62,49,0.480,24.9,26.2,22.6,23.28,23.3,195,11,33.1,0.00034,0.00038,31.7,33.3,19,0,.,.,8.52,0.00,0.00
15min,AgWx,beryljct,423,17JAN2020:02:00:00,39.4,12.82,35.6,35.8,37.0,37.8,35.8,67,73,63,0.523,27.0,28.2,26.1,36.26,26.3,197,8.5,37.7,0.00024,0.00027,31.7,33.2,18,0,.,.,8.53,0.01,0.00
15min,AgWx,beryljct,423,17JAN2020:02:15:00,38.4,12.82,34.6,34.3,34.6,35.8,34.1,81,84,74,0.560,29.4,29.9,28.3,28.61,23.3,194,11,35.8,0.00011,0.00012,31.7,33.3,19,0,.,.,8.52,0.00,0.00
15min,AgWx,beryljct,423,17JAN2020:02:30:00,37.3,12.8,33.5,33.3,33.7,34.3,33.3,87,90,84,0.578,30.3,30.7,29.8,18.83,23.0,193,7.1,33.1,0.00006,0.00006,31.8,33.3,19,0,.,.,8.52,0.00,0.00
15min,AgWx,beryljct,423,17JAN2020:02:45:00,36.5,12.8,33.5,33.2,33.2,33.3,33.0,91,91,90,0.582,30.7,30.9,30.6,19.69,18.3,194,9.1,24.5,0.00002,0.00002,31.8,33.3,18,0,.,.,8.52,0.00,0.00
15min,AgWx,beryljct,423,17JAN2020:03:00:00,36.0,12.79,33.5,33.2,33.2,33.3,33.1,91,92,91,0.587,30.9,31.1,30.8,18.39,16.8,207,10,21.2,0.00001,0.00001,31.7,33.3,18,0,.,.,8.53,0.00,0.00
15min,AgWx,beryljct,423,17JAN2020:03:15:00,35.6,12.79,33.0,32.9,33.1,33.3,32.9,92,93,91,0.589,31.0,31.2,31.0,16.7,18.3,212,13,25.2,0.00001,0.00001,31.7,33.3,19,0,.,.,8.53,0.00,0.00
15min,AgWx,beryljct,423,17JAN2020:03:30:00,35.1,12.78,33.5,33.2,32.9,33.3,32.7,92,94,89,0.569,30.8,31.2,30.2,13.99,15.8,200,6.5,21.5,0.00000,0.00001,31.8,33.3,19,0,.,.,8.53,0.00,0.00
15min,AgWx,beryljct,423,17JAN2020:03:45:00,34.9,12.76,32.8,32.7,33.3,34.0,32.7,87,89,84,0.557,29.8,30.3,29.5,11.86,17.7,193,8.4,28.0,0.00004,0.00005,31.8,33.3,18,0,.,.,8.53,0.00,0.00
15min,AgWx,beryljct,423,17JAN2020:04:00:00,34.4,12.77,33.9,33.4,32.9,33.5,32.6,86,89,82,0.530,29.1,29.8,28.5,20.65,15.5,201,9.7,23.8,0.00004,0.00005,31.8,33.3,19,0,.,.,8.54,0.00,0.00
15min,AgWx,beryljct,423,17JAN2020:04:15:00,34.2,12.76,33.5,33.4,33.6,33.7,33.4,80,82,79,0.516,28.1,28.6,27.7,16.09,19.5,204,8.2,28.7,0.00010,0.00011,31.8,33.3,19,0,.,.,8.54,0.00,0.00
15min,AgWx,beryljct,423,17JAN2020:04:30:00,34.1,12.76,33.7,33.7,33.8,34.2,33.3,79,80,77,0.514,27.9,28.1,27.7,14.99,20.4,206,9.6,28.7,0.00011,0.00012,31.8,33.3,18,0,.,.,8.54,0.00,0.00
15min,AgWx,beryljct,423,17JAN2020:04:45:00,34.2,12.75,34.0,33.6,33.8,34.0,33.5,79,80,78,0.521,27.9,28.1,27.8,16.77,17.6,215,8.7,23.5,0.00010,0.00011,31.8,33.3,19,0,.,.,8.53,0.00,0.00
15min,AgWx,beryljct,423,17JAN2020:05:00:00,34.3,12.75,31.9,31.9,33.4,34.0,31.9,82,88,79,0.535,28.5,28.8,28.1,15.24,15.3,256,27,24.1,0.00007,0.00008,31.8,33.3,18,0,.,.,8.54,0.00,0.00
15min,AgWx,beryljct,423,17JAN2020:05:15:00,34.0,12.74,31.3,31.0,31.3,31.9,31.0,92,93,88,0.544,29.1,29.3,28.8,15.37,19.9,260,12,32.8,0.00001,0.00002,31.8,33.3,18,0,.,.,8.55,0.01,0.00
15min,AgWx,beryljct,423,17JAN2020:05:30:00,33.6,12.74,31.7,31.6,31.3,31.7,31.0,90,93,86,0.516,28.8,29.3,27.8,12.78,16.3,229,7.8,20.4,0.00001,0.00002,31.8,33.3,18,0,.,.,8.55,0.00,0.00
15min,AgWx,beryljct,423,17JAN2020:05:45:00,33.1,12.72,32.1,31.5,31.2,31.6,30.9,86,87,85,0.505,27.4,27.9,27.2,15.74,11.8,234,8.6,17.3,0.00002,0.00003,31.8,33.3,19,0,.,.,8.55,0.00,0.00
15min,AgWx,beryljct,423,17JAN2020:06:00:00,32.9,12.73,31.6,31.4,31.7,31.9,31.3,76,84,71,0.421,25.1,27.4,22.8,17.54,17.3,249,7.1,24.0,0.00010,0.00012,31.8,33.3,18,0,.,.,8.55,0.00,0.00
15min,AgWx,beryljct,423,17JAN2020:06:15:00,32.2,12.72,31.3,30.8,30.7,31.3,30.0,76,81,71,0.466,23.9,25.5,22.9,16.16,15.2,243,6.2,18.7,0.00010,0.00011,31.8,33.3,18,0,.,.,8.55,0.00,0.00
15min,AgWx,beryljct,423,17JAN2020:06:30:00,31.8,12.71,31.8,31.5,31.3,31.6,30.8,77,80,73,0.438,25.0,25.4,23.9,16.46,16.7,236,6.1,22.1,0.00010,0.00011,31.8,33.3,18,0,.,.,8.55,0.00,0.00
15min,AgWx,beryljct,423,17JAN2020:06:45:00,31.5,12.72,30.3,30.6,31.0,31.5,30.6,74,74,73,0.423,23.6,23.9,23.1,9.6,13.7,243,7.4,17.7,0.00010,0.00012,31.8,33.3,18,0,.,.,8.55,0.00,0.00
15min,AgWx,beryljct,423,17JAN2020:07:00:00,30.8,12.71,29.4,29.1,29.7,30.6,28.8,75,77,73,0.419,22.6,23.1,22.2,6.862,8.7,236,7.1,13.1,0.00005,0.00007,31.8,33.3,18,0,.,.,8.55,0.00,0.00
15min,AgWx,beryljct,423,17JAN2020:07:15:00,30.0,12.71,29.9,29.3,28.8,29.3,28.3,78,78,77,0.420,22.7,23.1,22.2,8.13,7.1,225,6.4,12.6,0.00020,0.00035,31.8,33.3,18,0,.,.,8.55,0.00,0.00
15min,AgWx,beryljct,423,17JAN2020:07:30:00,29.2,12.71,26.6,26.9,28.0,29.3,26.7,74,77,72,0.363,20.9,22.9,19.5,6.993,7.2,248,8.7,10.7,0.00023,0.00039,31.8,33.3,18,0,.,.,8.56,0.00,0.00
15min,AgWx,beryljct,423,17JAN2020:07:45:00,27.9,12.7,25.6,24.6,25.4,26.8,24.4,74,76,73,0.332,18.3,19.3,17.2,9.12,7.6,251,3.8,9.7,0.00022,0.00038,31.8,33.3,18,2,.,.,8.55,0.00,0.00
15min,AgWx,beryljct,423,17JAN2020:08:00:00,27.0,12.71,26.2,25.5,25.6,26.1,24.7,70,74,69,0.329,17.3,17.5,17.0,9.86,9.7,259,7.5,11.6,0.00031,0.00053,31.8,33.3,18,8,.,.,8.55,0.00,0.00
15min,AgWx,beryljct,423,17JAN2020:08:15:00,26.9,12.73,28.0,27.2,26.5,27.2,25.5,69,70,68,0.342,17.6,18.1,17.2,12.23,10.2,264,5.1,13.6,0.00043,0.00067,31.8,33.3,18,42,.,.,8.55,0.00,0.00
15min,AgWx,beryljct,423,17JAN2020:08:30:00,27.6,12.75,29.0,28.9,28.1,29.0,27.2,67,69,64,0.344,18.4,18.7,18.0,12.67,13.1,266,5.7,16.9,0.00058,0.00090,31.8,33.3,19,89,.,.,8.55,0.00,0.00
15min,AgWx,beryljct,423,17JAN2020:08:45:00,28.7,12.73,27.4,27.5,28.2,28.9,27.5,66,68,64,0.346,18.2,18.5,18.0,9.08,11.4,260,4.9,16.6,0.00065,0.00096,31.8,33.3,18,128,.,.,8.55,0.00,0.00
15min,AgWx,beryljct,423,17JAN2020:09:00:00,29.4,12.78,27.4,27.4,27.4,27.6,27.2,69,69,68,0.348,18.4,18.6,18.2,7.322,8.1,261,5.8,11.0,0.00064,0.00087,31.8,33.3,19,168,.,.,8.55,0.01,0.00
15min,AgWx,beryljct,423,17JAN2020:09:15:00,30.1,12.81,27.7,27.7,27.5,27.8,27.3,69,70,68,0.350,18.7,18.9,18.5,6.204,6.4,255,7.8,7.9,0.00072,0.00093,31.8,33.3,19,210,.,.,8.55,0.00,0.00
15min,AgWx,beryljct,423,17JAN2020:09:30:00,30.8,12.89,28.8,28.3,27.6,28.5,27.3,67,68,64,0.337,18.2,18.6,17.6,8.72,6.8,253,3.8,8.7,0.00084,0.00107,31.8,33.3,18,251,.,.,8.55,0.00,0.00
15min,AgWx,beryljct,423,17JAN2020:09:45:00,31.6,12.96,29.5,29.4,29.0,29.7,28.3,62,64,60,0.339,17.5,17.9,17.2,6.664,7.7,257,5.1,9.5,0.00102,0.00133,31.8,33.3,18,292,.,.,8.55,0.00,0.00
15min,AgWx,beryljct,423,17JAN2020:10:00:00,32.6,13.07,30.3,29.8,29.5,29.8,29.2,64,65,62,0.362,18.8,19.4,17.9,5.174,5.9,256,5.4,7.7,0.00111,0.00137,31.8,33.3,18,332,.,.,8.55,0.00,0.00
15min,AgWx,beryljct,423,17JAN2020:10:15:00,33.7,13.27,30.6,30.6,30.6,31.3,29.8,61,65,58,0.360,18.9,19.5,18.1,3.683,4.3,244,9.6,6.4,0.00127,0.00152,31.8,33.3,18,370,.,.,8.54,0.00,0.00
15min,AgWx,beryljct,423,17JAN2020:10:30:00,35.3,13.57,31.6,31.7,31.4,32.1,30.6,59,63,56,0.341,18.7,19.4,18.0,0,1.7,263,13,3.9,0.00142,0.00159,31.8,33.3,18,403,.,.,8.54,0.00,0.00
15min,AgWx,beryljct,423,17JAN2020:10:45:00,37.5,14.76,32.6,32.0,31.9,32.2,31.6,57,62,55,0.363,18.5,20.3,17.7,1.754,0.3,327,13,2.2,0.00156,0.00167,31.8,33.3,20,435,.,.,8.54,0.00,0.00
15min,AgWx,beryljct,423,17JAN2020:11:00:00,39.7,14.67,32.1,32.1,32.4,32.8,32.0,55,60,53,0.371,18.2,20.0,17.3,2.17,2.2,353,27,4.0,0.00166,0.00188,31.8,33.3,19,463,.,.,8.54,0.00,0.00
15min,AgWx,beryljct,423,17JAN2020:11:15:00,41.1,14.76,32.9,32.8,32.4,32.9,31.9,56,61,50,0.326,18.3,20.1,16.0,5.283,2.8,6.7,33,5.9,0.00174,0.00199,31.8,33.3,19,488,.,.,8.54,0.00,0.00
15min,AgWx,beryljct,423,17JAN2020:11:30:00,41.8,14.78,32.6,32.9,32.9,33.2,32.8,50,54,47,0.341,16.4,18.0,15.1,2.236,2.2,4.3,30,4.8,0.00186,0.00211,31.8,33.3,19,512,.,.,8.54,0.00,0.00
15min,AgWx,beryljct,423,17JAN2020:11:45:00,42.2,14.76,33.9,33.3,33.1,33.3,32.7,52,56,48,0.326,17.3,19.2,15.7,3.135,2.9,343,10,4.4,0.00190,0.00218,31.8,33.3,19,526,.,.,8.53,0.00,0.00
15min,AgWx,beryljct,423,17JAN2020:12:00:00,42.5,14.25,34.4,34.0,33.6,34.2,33.3,48,51,45,0.295,15.8,17.0,14.3,0,2.0,348,23,4.8,0.00200,0.00225,31.8,33.3,18,544,.,.,8.53,0.00,0.00
15min,AgWx,beryljct,423,17JAN2020:12:15:00,43.0,14.24,33.8,33.9,34.2,35.4,33.9,46,49,43,0.314,15.8,17.1,14.3,2.938,1.2,16,28,4.6,0.00200,0.00221,31.8,33.3,18,538,.,.,8.53,0.00,0.00
15min,AgWx,beryljct,423,17JAN2020:12:30:00,42.7,14.23,34.1,34.1,34.0,34.3,33.8,47,50,45,0.302,15.8,17.1,14.7,3.223,3.6,60,15,5.3,0.00203,0.00237,31.8,33.3,18,551,.,.,8.53,0.00,0.00
15min,AgWx,beryljct,423,17JAN2020:12:45:00,42.1,14.23,34.0,34.0,34.0,34.2,33.8,44,45,42,0.275,14.2,15.3,13.1,2.455,2.6,38,18,4.5,0.00196,0.00226,31.8,33.3,18,531,.,.,8.52,0.00,0.00
15min,AgWx,beryljct,423,17JAN2020:13:00:00,42.0,14.22,34.3,34.6,34.5,34.9,34.0,43,47,41,0.295,14.5,16.8,12.9,1.622,2.1,85,36,5.4,0.00209,0.00236,31.8,33.3,18,558,.,.,8.52,0.00,0.00
15min,AgWx,beryljct,423,17JAN2020:13:15:00,42.0,14.2,34.5,34.9,34.7,35.2,34.4,44,48,42,0.313,15.0,17.5,13.7,4.779,2.1,315,25,4.8,0.00205,0.00233,31.8,33.3,18,547,.,.,8.52,0.01,0.00
15min,AgWx,beryljct,423,17JAN2020:13:30:00,42.2,14.22,34.7,35.1,35.2,35.7,34.8,40,44,38,0.272,13.3,15.4,12.3,1.622,1.6,170,45,4.4,0.00203,0.00229,31.8,33.3,18,536,.,.,8.52,0.00,0.00
15min,AgWx,beryljct,423,17JAN2020:13:45:00,42.4,14.29,35.9,35.8,35.8,37.0,35.0,41,44,39,0.315,14.5,16.2,12.6,3.135,2.4,223,31,3.8,0.00201,0.00231,31.8,33.3,18,524,.,.,8.52,0.00,0.00
15min,AgWx,beryljct,423,17JAN2020:14:00:00,42.0,14.2,35.2,35.1,35.4,36.0,35.1,43,47,41,0.285,15.2,17.6,13.8,0,3.1,284,49,6.1,0.00188,0.00221,31.8,33.3,18,495,.,.,8.52,0.00,0.00
15min,AgWx,beryljct,423,17JAN2020:14:15:00,41.9,14.14,35.6,35.5,35.4,35.7,35.1,43,46,41,0.304,15.1,16.8,13.5,4.669,2.6,329,58,6.7,0.00169,0.00197,31.8,33.3,18,451,.,.,8.52,0.00,0.00
15min,AgWx,beryljct,423,17JAN2020:14:30:00,41.9,14.16,36.2,35.9,35.8,36.3,35.5,43,46,41,0.321,15.6,17.3,14.1,6.314,4.3,276,25,8.5,0.00171,0.00210,31.8,33.3,18,446,.,.,8.52,0.00,0.00
15min,AgWx,beryljct,423,17JAN2020:14:45:00,41.6,14.18,37.0,36.7,36.2,36.7,35.7,44,47,42,0.343,16.6,18.1,14.8,5.239,7.1,326,20,10.4,0.00168,0.00219,31.8,33.3,18,418,.,.,8.52,0.00,0.00
15min,AgWx,beryljct,423,17JAN2020:15:00:00,41.6,14.14,35.8,35.8,36.0,36.8,35.7,41,47,38,0.277,14.5,18.2,12.9,1.25,3.3,4.9,26,7.1,0.00154,0.00187,31.8,33.3,18,404,.,.,8.52,0.00,0.00
15min,AgWx,beryljct,423,17JAN2020:15:15:00,42.1,14.16,36.7,36.7,36.3,36.7,35.8,42,46,39,0.291,15.4,17.7,13.1,0,3.9,318,25,7.5,0.00145,0.00180,31.8,33.3,18,375,.,.,8.51,0.00,0.00
15min,AgWx,beryljct,423,17JAN2020:15:30:00,42.6,14.08,37.6,36.9,36.9,37.7,36.5,38,40,37,0.288,13.9,14.6,13.1,3.179,1.8,52,56,4.4,0.00126,0.00149,31.8,33.3,18,349,.,.,8.51,0.00,0.00
15min,AgWx,beryljct,423,17JAN2020:15:45:00,42.9,14.17,37.1,37.0,37.0,37.3,36.7,39,41,37,0.299,14.6,15.8,13.0,5.722,6.3,344,11,11.1,0.00132,0.00182,31.8,33.3,18,306,.,.,8.51,0.00,0.00
15min,AgWx,beryljct,423,17JAN2020:16:00:00,42.5,14.11,36.6,36.6,36.8,37.0,36.6,41,44,38,0.296,15.1,17.1,13.3,6.752,6.0,332,13,8.8,0.00108,0.00154,31.8,33.3,18,250,.,.,8.52,0.00,0.00
15min,AgWx,beryljct,423,17JAN2020:16:15:00,41.9,14.14,36.5,36.4,36.6,36.8,36.3,42,45,41,0.298,15.8,17.3,14.7,5.349,5.9,330,8.8,8.2,0.00090,0.00133,31.8,33.3,18,209,.,.,8.51,0.00,0.00
15min,AgWx,beryljct,423,17JAN2020:16:30:00,41.2,14.13,36.4,36.2,36.3,36.4,36.1,43,47,39,0.322,15.7,18.0,13.9,3.529,4.0,326,8.6,6.4,0.00063,0.00094,31.8,33.3,19,170,.,.,8.51,0.00,0.00
15min,AgWx,beryljct,423,17JAN2020:16:45:00,40.4,14.17,35.5,35.3,35.9,36.3,35.3,43,47,40,0.321,15.4,16.9,14.4,4.757,4.2,337,8.2,5.4,0.00029,0.00038,31.8,33.3,18,133,.,.,8.51,0.00,0.00
15min,AgWx,beryljct,423,17JAN2020:17:00:00,39.6,14.23,34.6,34.6,35.1,35.7,34.6,46,47,44,0.318,16.2,16.9,15.6,4.472,4.7,330,8.6,6.9,0.00025,0.00032,31.8,33.3,18,101,.,.,8.51,0.00,0.00
15min,AgWx,beryljct,423,17JAN2020:17:15:00,38.3,13.81,32.9,33.1,33.9,34.7,33.1,48,50,46,0.310,16.2,16.9,15.7,5.787,5.2,316,6.6,6.8,0.00020,0.00026,31.8,33.3,19,66,.,.,8.51,0.00,0.00
15min,AgWx,beryljct,423,17JAN2020:17:30:00,36.4,13.21,30.6,30.0,31.6,33.0,30.0,53,56,49,0.317,16.3,16.7,15.8,4.845,5.0,305,15,6.1,0.00011,0.00015,31.8,33.3,18,20,.,.,8.52,0.00,0.00
15min,AgWx,beryljct,423,17JAN2020:17:45:00,34.1,13.12,30.4,29.8,30.0,30.7,28.8,54,57,51,0.299,15.2,16.3,14.6,2.916,4.0,282,5.9,5.6,0.00005,0.00008,31.8,33.3,18,7,.,.,8.52,0.00,0.00
15min,AgWx,beryljct,423,17JAN2020:18:00:00,31.9,13.05,27.6,27.4,27.9,29.9,26.7,59,63,52,0.308,15.2,15.9,14.2,4.779,3.3,293,4.0,5.1,-0.00000,0.00002,31.8,33.3,19,1,.,.,8.52,0.00,0.00
15min,AgWx,beryljct,423,17JAN2020:18:15:00,30.1,13.04,28.0,27.7,27.6,28.0,27.0,60,62,59,0.302,15.7,16.1,15.2,5.744,4.9,298,7.5,6.2,0.00004,0.00007,31.8,33.3,18,0,.,.,8.52,0.00,0.00
15min,AgWx,beryljct,423,17JAN2020:18:30:00,29.0,13.02,27.6,27.8,27.9,29.0,27.3,56,59,52,0.283,14.4,15.2,13.2,4.209,4.8,286,8.7,5.5,0.00006,0.00008,31.8,33.3,19,0,.,.,8.52,0.00,0.00
15min,AgWx,beryljct,423,17JAN2020:18:45:00,28.2,13.01,28.4,27.8,27.6,28.1,27.3,56,57,54,0.291,13.9,14.4,13.3,4.735,4.3,283,13,5.7,0.00004,0.00007,31.8,33.3,19,0,.,.,8.53,0.00,0.00
15min,AgWx,beryljct,423,17JAN2020:19:00:00,27.8,12.99,27.6,27.2,28.0,28.3,27.2,55,57,54,0.285,14.0,14.4,13.7,4.713,4.8,299,13,6.2,0.00006,0.00009,31.8,33.3,19,0,.,.,8.52,0.00,0.00
15min,AgWx,beryljct,423,17JAN2020:19:15:00,27.4,12.98,27.1,26.6,26.7,27.3,26.3,59,61,57,0.289,14.3,14.6,14.0,3.727,5.1,303,7.7,6.4,0.00005,0.00008,31.8,33.3,19,0,.,.,8.52,0.00,0.00
15min,AgWx,beryljct,423,17JAN2020:19:30:00,27.0,12.97,26.7,26.3,26.6,26.9,26.3,59,60,58,0.291,14.1,14.4,13.6,5.656,5.4,299,7.1,7.4,0.00006,0.00009,31.8,33.3,19,0,.,.,8.52,0.00,0.00
15min,AgWx,beryljct,423,17JAN2020:19:45:00,26.7,12.96,25.4,25.5,26.2,26.9,25.4,61,63,58,0.294,14.4,14.6,14.1,3.99,4.9,311,12,6.6,0.00004,0.00007,31.8,33.3,19,0,.,.,8.53,0.00,0.00
15min,AgWx,beryljct,423,17JAN2020:20:00:00,26.2,12.94,24.1,25.8,25.2,26.2,24.6,64,65,61,0.292,14.7,15.2,14.3,5.502,3.6,314,33,5.5,-0.00001,0.00000,31.8,33.3,19,0,.,.,8.52,0.00,0.00
15min,AgWx,beryljct,423,17JAN2020:20:15:00,25.7,12.94,21.2,21.4,23.2,25.6,21.4,68,72,62,0.282,14.1,15.1,13.3,2.85,3.3,41,15,5.6,-0.00002,-0.00002,31.8,33.3,19,0,.,.,8.53,0.00,0.00
15min,AgWx,beryljct,423,17JAN2020:20:30:00,24.7,12.92,22.7,22.5,21.4,22.5,20.7,73,75,70,0.288,14.1,14.8,13.6,0.548,1.2,328,55,2.7,-0.00011,-0.00015,31.8,33.3,18,0,.,.,8.53,0.00,0.00
15min,AgWx,beryljct,423,17JAN2020:20:45:00,23.8,12.92,22.1,21.9,22.2,23.2,20.9,71,75,67,0.294,14.2,15.0,13.5,0,0.2,322,13,0.9,-0.00018,-0.00027,31.9,33.3,19,0,.,.,8.53,0.00,0.00
15min,AgWx,beryljct,423,17JAN2020:21:00:00,23.1,12.9,21.4,20.9,21.9,22.4,20.9,73,77,71,0.298,14.7,15.0,14.4,1.162,1.5,245,23,2.8,-0.00010,-0.00013,31.8,33.3,19,0,.,.,8.53,0.00,0.00
15min,AgWx,beryljct,423,17JAN2020:21:15:00,22.6,12.9,22.1,21.5,21.7,22.3,20.9,74,78,72,0.290,14.8,15.4,13.9,0,0.5,172,60,3.1,-0.00015,-0.00022,31.9,33.3,19,0,.,.,8.53,0.00,0.00
15min,AgWx,beryljct,423,17JAN2020:21:30:00,22.2,12.89,21.3,21.1,21.7,22.8,21.0,74,78,71,0.296,14.8,15.6,13.9,0,1.6,174,37,3.9,-0.00010,-0.00012,31.8,33.3,19,0,.,.,8.53,0.00,0.00
15min,AgWx,beryljct,423,17JAN2020:21:45:00,21.9,12.88,22.6,21.1,21.4,22.3,20.8,75,78,71,0.287,14.7,15.3,13.5,2.214,1.1,159,5.6,2.9,-0.00012,-0.00016,31.9,33.3,19,0,.,.,8.53,0.00,0.00
15min,AgWx,beryljct,423,17JAN2020:22:00:00,21.5,12.88,19.9,19.2,20.2,21.7,19.2,78,82,72,0.293,14.4,14.8,13.7,3.617,2.7,172,19,4.8,-0.00006,-0.00007,31.8,33.3,19,0,.,.,8.53,0.00,0.00
15min,AgWx,beryljct,423,17JAN2020:22:15:00,20.9,12.86,20.2,19.7,19.2,20.5,18.5,81,84,76,0.290,14.3,14.9,13.5,0,1.2,189,8.8,3.4,-0.00011,-0.00015,31.8,33.3,19,0,.,.,8.53,0.00,0.00
15min,AgWx,beryljct,423,17JAN2020:22:30:00,20.2,12.85,20.2,19.5,19.2,19.9,18.5,81,82,78,0.294,14.2,14.6,13.3,0,0.1,195,0.0,0.7,-0.00018,-0.00028,31.8,33.3,18,0,.,.,8.53,0.00,0.00
15min,AgWx,beryljct,423,17JAN2020:22:45:00,19.8,12.85,20.3,19.5,19.7,20.1,19.1,79,81,77,0.286,14.2,14.6,13.7,1.03,1.2,218,32,2.7,-0.00012,-0.00015,31.8,33.3,18,0,.,.,8.54,0.00,0.00
15min,AgWx,beryljct,423,17JAN2020:23:00:00,19.5,12.83,19.2,18.4,19.2,19.9,18.3,79,81,77,0.282,13.7,14.3,13.2,0.789,1.5,168,78,3.0,-0.00010,-0.00012,31.9,33.3,18,0,.,.,8.54,0.00,0.00
15min,AgWx,beryljct,423,17JAN2020:23:15:00,19.0,12.81,17.5,17.6,18.3,19.1,17.5,82,84,80,0.280,13.8,14.5,13.1,0,0.3,115,0.0,1.3,-0.00016,-0.00024,31.8,33.3,19,0,.,.,8.54,0.00,0.00
15min,AgWx,beryljct,423,17JAN2020:23:30:00,18.5,12.81,18.2,17.1,16.7,17.5,16.1,85,86,84,0.283,12.9,13.8,12.0,0,1.0,79,41,5.0,-0.00012,-0.00016,31.8,33.3,18,0,.,.,8.54,0.00,0.00
15min,AgWx,bigpiney,439,17JAN2020:00:00:00,-0.1,12.54,1.6,0.7,0.3,0.7,-0.3,83,83,81,0.130,-3.8,-3.2,-4.7,1.096,2.2,266,17,3.8,-0.00003,-0.00003,28.6,30.1,10,0,0,0.0,5.71,0.00,0.00
15min,AgWx,bigpiney,439,17JAN2020:00:15:00,0.7,12.53,3.7,3.5,2.8,4.5,0.7,83,85,80,0.145,-1.2,0.7,-3.2,0.022,1.4,235,3.6,2.4,-0.00004,-0.00005,28.6,30.0,10,0,0,0.0,5.71,0.00,0.00
15min,AgWx,bigpiney,439,17JAN2020:00:30:00,1.5,12.52,2.8,2.5,3.7,5.2,2.5,81,84,80,0.139,-0.7,1.3,-1.9,0,1.5,325,78,3.4,-0.00004,-0.00005,28.6,30.0,10,0,0,0.0,5.71,0.00,0.00
15min,AgWx,bigpiney,439,17JAN2020:00:45:00,2.1,12.5,3.1,2.2,2.8,3.2,2.1,83,83,81,0.139,-1.3,-0.7,-2.2,1.491,0.3,96,51,1.5,-0.00007,-0.00011,28.6,30.1,10,0,0,0.0,5.71,0.00,0.00
15min,AgWx,bigpiney,439,17JAN2020:01:00:00,2.5,12.49,3.1,2.6,2.7,3.2,2.2,83,85,82,0.142,-1.2,-0.5,-1.9,2.499,2.8,263,13,5.3,-0.00002,-0.00003,28.6,30.1,10,0,0,0.0,5.71,0.00,0.00
15min,AgWx,bigpiney,439,17JAN2020:01:15:00,2.9,12.47,6.7,5.2,5.0,7.2,2.5,82,85,78,0.154,0.7,2.9,-1.5,2.499,3.1,227,15,4.8,-0.00002,-0.00002,28.6,30.0,10,0,0,0.0,5.71,0.00,0.00
15min,AgWx,bigpiney,439,17JAN2020:01:30:00,3.6,12.47,5.6,4.8,5.5,6.1,4.8,81,82,80,0.155,0.8,1.5,0.4,3.749,1.6,156,37,4.7,-0.00004,-0.00005,28.6,30.0,10,0,0,0.0,5.71,0.00,0.00
15min,AgWx,bigpiney,439,17JAN2020:01:45:00,4.2,12.46,5.5,4.9,4.3,4.9,3.7,83,84,81,0.159,0.1,1.2,-0.5,3.003,2.1,152,31,4.6,-0.00003,-0.00004,28.6,30.1,10,0,0,0.0,5.71,0.00,0.00
15min,AgWx,bigpiney,439,17JAN2020:02:00:00,4.8,12.46,6.3,5.7,5.3,5.9,4.8,83,83,82,0.161,1.2,1.9,0.8,3.529,2.7,199,8.8,4.5,-0.00003,-0.00003,28.6,30.1,10,0,0,0.0,5.71,0.00,0.00
15min,AgWx,bigpiney,439,17JAN2020:02:15:00,5.1,12.45,6.4,4.7,5.4,6.5,4.5,81,83,80,0.151,0.9,2.3,-0.2,5.853,3.7,237,14,6.0,-0.00001,-0.00001,28.6,30.1,10,0,0,0.0,5.71,0.00,0.00
15min,AgWx,bigpiney,439,17JAN2020:02:30:00,5.1,12.43,5.6,3.6,6.1,8.2,3.6,80,83,77,0.141,1.3,3.7,-1.6,3.288,5.0,246,6.4,6.2,-0.00000,0.00000,28.6,30.1,10,0,0,0.0,5.71,0.00,0.00
15min,AgWx,bigpiney,439,17JAN2020:02:45:00,4.8,12.42,7.0,4.4,6.1,8.6,3.7,82,85,76,0.148,1.8,4.7,-2.0,2.938,3.9,247,18,4.9,-0.00001,-0.00001,28.6,30.1,10,0,0,0.0,5.71,0.00,0.00
15min,AgWx,bigpiney,439,17JAN2020:03:00:00,4.4,12.41,4.8,4.8,4.4,6.8,1.4,82,87,77,0.152,0.1,3.6,-3.7,6.927,5.2,239,12,6.9,-0.00000,-0.00000,28.6,30.0,10,0,0,0.0,5.71,0.00,0.00
15min,AgWx,bigpiney,439,17JAN2020:03:15:00,4.6,12.41,6.1,5.6,5.1,5.6,3.9,82,83,80,0.162,0.8,1.5,-0.8,7.41,5.9,225,8.8,9.7,0.00000,0.00000,28.6,30.1,10,0,0,0.0,5.71,0.00,0.00
15min,AgWx,bigpiney,439,17JAN2020:03:30:00,5.2,12.41,7.3,6.5,6.4,7.5,5.5,83,84,81,0.168,2.2,3.6,1.3,6.401,5.4,226,8.3,7.8,-0.00000,0.00000,28.6,30.1,10,0,0,0.0,5.71,0.00,0.00
15min,AgWx,bigpiney,439,17JAN2020:03:45:00,5.8,12.4,7.1,6.9,6.8,7.0,6.5,82,82,81,0.171,2.4,2.8,1.9,4.954,4.7,234,5.9,6.7,-0.00001,-0.00000,28.6,30.1,10,0,0,0.0,5.71,0.00,0.00
15min,AgWx,bigpiney,439,17JAN2020:04:00:00,6.4,12.39,4.9,4.6,6.4,7.2,4.6,82,83,80,0.150,2.0,3.3,-0.2,1.337,3.5,282,53,5.6,-0.00002,-0.00002,28.5,30.1,10,0,0,0.0,5.71,0.00,0.00
15min,AgWx,bigpiney,439,17JAN2020:04:15:00,6.6,12.39,3.4,2.8,3.5,4.6,2.8,82,83,80,0.143,-0.8,-0.1,-1.3,1.535,2.2,7.5,13,4.9,-0.00003,-0.00003,28.5,30.1,10,0,0,0.0,5.71,0.00,0.00
15min,AgWx,bigpiney,439,17JAN2020:04:30:00,6.5,12.38,4.1,3.2,2.8,3.2,2.6,83,84,82,0.147,-1.2,-0.7,-1.5,0.833,0.5,327,55,2.0,-0.00006,-0.00009,28.5,30.1,10,0,0,0.0,5.71,0.00,0.00
15min,AgWx,bigpiney,439,17JAN2020:04:45:00,6.2,12.38,4.2,3.7,3.4,3.8,3.0,84,85,83,0.152,-0.3,0.3,-1.1,2.017,1.3,212,25,4.2,-0.00005,-0.00006,28.5,30.1,10,0,0,0.0,5.71,0.00,0.00
15min,AgWx,bigpiney,439,17JAN2020:05:00:00,5.7,12.38,5.7,5.1,4.6,5.1,3.6,85,85,83,0.163,1.0,1.5,-0.1,1.732,1.6,157,20,2.9,-0.00004,-0.00005,28.5,30.1,10,0,0,0.0,5.71,0.00,0.00
15min,AgWx,bigpiney,439,17JAN2020:05:15:00,5.3,12.37,4.6,3.1,4.2,5.4,2.6,83,86,81,0.144,0.3,1.8,-1.9,1.688,1.6,207,24,2.8,-0.00004,-0.00005,28.5,30.1,10,0,0,0.0,5.71,0.00,0.00
15min,AgWx,bigpiney,439,17JAN2020:05:30:00,4.9,12.36,6.1,4.9,4.9,5.5,3.2,84,86,82,0.158,1.0,2.1,-0.9,2.236,1.2,167,29,2.2,-0.00005,-0.00007,28.6,30.0,10,0,0,0.0,5.71,0.00,0.00
15min,AgWx,bigpiney,439,17JAN2020:05:45:00,5.1,12.36,5.8,5.1,5.6,6.3,4.9,84,85,83,0.162,1.7,2.5,1.0,1.293,2.4,291,44,3.9,-0.00003,-0.00003,28.6,30.1,10,0,0,0.0,5.71,0.00,0.00
15min,AgWx,bigpiney,439,17JAN2020:06:00:00,5.8,12.36,8.7,7.7,6.3,7.7,5.1,85,86,85,0.185,2.9,4.3,1.5,0.767,2.6,295,12,4.9,-0.00003,-0.00003,28.6,30.1,10,0,0,0.0,5.71,0.00,0.00
15min,AgWx,bigpiney,439,17JAN2020:06:15:00,6.6,12.36,10.6,9.7,8.8,9.8,7.8,86,86,85,0.203,5.4,6.5,4.3,0.153,0.6,178,40,2.4,-0.00008,-0.00011,28.5,30.1,10,0,0,0.0,5.71,0.00,0.00
15min,AgWx,bigpiney,439,17JAN2020:06:30:00,7.6,12.36,10.7,9.9,10.2,11.0,9.7,86,87,85,0.207,6.9,7.8,6.1,1.425,2.0,170,18,3.9,-0.00005,-0.00006,28.5,30.1,10,0,0,0.0,5.71,0.00,0.00
15min,AgWx,bigpiney,439,17JAN2020:06:45:00,8.4,12.35,9.5,9.6,10.2,10.5,9.6,87,88,86,0.204,7.0,7.5,6.4,3.31,1.3,115,29,3.3,-0.00006,-0.00008,28.5,30.1,10,0,0,0.0,5.71,0.00,0.00
15min,AgWx,bigpiney,439,17JAN2020:07:00:00,8.9,12.35,5.6,5.4,7.2,9.6,5.4,86,87,85,0.168,3.8,6.4,2.2,0,2.8,83,12,4.8,-0.00003,-0.00003,28.5,30.1,10,0,0,0.0,5.71,0.00,0.00
15min,AgWx,bigpiney,439,17JAN2020:07:15:00,8.7,12.35,5.7,5.3,5.3,5.6,5.2,87,88,86,0.169,2.2,2.6,1.9,3.244,1.9,176,37,3.2,-0.00004,-0.00005,28.5,30.1,10,0,0,0.0,5.71,0.00,0.00
15min,AgWx,bigpiney,439,17JAN2020:07:30:00,8.1,12.34,5.2,4.8,4.8,5.8,3.3,88,90,84,0.167,1.9,3.2,-0.4,0.789,2.0,241,69,3.5,-0.00004,-0.00005,28.5,30.1,10,0,0,0.0,5.71,0.00,0.00
15min,AgWx,bigpiney,439,17JAN2020:07:45:00,7.3,12.37,6.6,6.1,5.3,6.1,4.3,89,90,87,0.179,2.7,3.7,1.3,3.771,1.3,296,39,3.9,-0.00005,-0.00007,28.5,30.2,10,2,0,0.0,5.71,0.00,0.00
15min,AgWx,bigpiney,439,17JAN2020:08:00:00,6.6,12.42,6.6,6.5,6.0,6.8,4.8,89,91,87,0.184,3.5,4.6,1.8,4.077,2.3,265,12,4.4,-0.00003,-0.00004,28.5,30.1,10,8,0,0.0,5.71,0.00,0.00
15min,AgWx,bigpiney,439,17JAN2020:08:15:00,6.1,12.54,5.6,5.0,5.0,6.3,3.5,88,90,86,0.169,2.3,3.9,0.2,6.226,5.9,251,12,9.0,-0.00006,-0.00003,28.5,30.1,10,22,0,0.0,5.71,0.00,0.00
15min,AgWx,bigpiney,439,17JAN2020:08:30:00,6.2,12.72,9.4,7.9,6.6,7.9,5.0,89,90,88,0.196,4.0,5.5,2.3,0,4.2,271,34,6.4,0.00001,0.00003,28.5,30.1,10,31,0,0.0,5.71,0.00,0.00
15min,AgWx,bigpiney,439,17JAN2020:08:45:00,6.8,15.02,10.7,10.0,8.7,10.0,7.9,89,90,88,0.215,6.1,7.5,5.0,2.083,2.3,10,57,6.2,0.00004,0.00006,28.5,30.1,10,54,0,0.0,5.71,0.00,0.00
15min,AgWx,bigpiney,439,17JAN2020:09:00:00,7.8,14.98,10.8,10.4,10.9,11.4,10.1,89,90,88,0.216,8.2,8.9,7.5,2.872,1.8,326,37,3.6,0.00010,0.00012,28.5,30.1,10,115,0,0.0,5.71,0.00,0.00